Weather History for Bismarck, ND

Change the Weather History Date:

Thursday, August 22, 2013

  Actual Average Record
Temperature  
Mean Temperature 69 °F 68 °F  
Max Temperature 85 °F 82 °F 106 °F (1960)
Min Temperature 53 °F 54 °F 35 °F (1908)
Degree Days  
Heating Degree Days 0 1  
Month to date heating degree days 6 19  
Since 1 June heating degree days 114 129  
Since 1 July heating degree days 28 36  
Cooling Degree Days 4 5  
Month to date cooling degree days 84 140  
Year to date cooling degree days 365 444  
Since 1 June cooling degree days 353 427  
Growing Degree Days 20 (Base 50)    
Moisture  
Dew Point 48 °F    
Average Humidity 54    
Maximum Humidity 83    
Minimum Humidity 25    
Precipitation  
Precipitation 0.00 in 0.07 in 1.40 in (1876)
Month to date precipitation 0.29 1.67  
Year to date precipitation 15.23 13.20  
Snow  
Snow 0.00 in 0.00 in 0.00 in (2002)
Month to date snowfall 0.0 0.0  
Since 1 June snowfall 0.0 0.0  
Since 1 July snowfall 0.0 0.0  
Snow Depth 0.00 in    
Sea Level Pressure  
Sea Level Pressure 30.14 in    
Wind  
Wind Speed 7 mph (SE)    
Max Wind Speed 15 mph    
Max Gust Speed 20 mph    
Visibility 10 miles    
Events      
T = Trace of Precipitation, MM = Missing Value Source: NWS Daily Summary

Daily Weather History Graph

Daily Weather History Graph

Search for Another Location

Airport:

Trip Planner

Search our weather history database for the weather conditions in past years. The results will help you decide how hot, cold, wet, or windy it might be!

Date:

Astronomy

Aug. 22, 2013 Rise Set
Actual Time 6:50 AM CDT 8:40 PM CDT
Civil Twilight 6:17 AM CDT 9:12 PM CDT
Nautical Twilight 5:38 AM CDT 9:52 PM CDT
Astronomical Twilight 4:54 AM CDT 10:35 PM CDT
Moon 9:12 PM CDT (8/22) 8:51 AM CDT (8/22)
Length of Visible Light 14h 54m
Length of Day
13h 50m
Waning Gibbous, 96% of the Moon is Illuminated
Aug 22
Waning Gibbous
Aug 28
Last Quarter
Sep 5
New
Sep 12
First Quarter
Sep 19
Full

Hourly Weather History & Observations

Time (CDT) Temp. Dew Point Humidity Pressure Visibility Wind Dir Wind Speed Gust Speed Precip Events Conditions
12:52 AM 62.1 °F 50.0 °F 65% 30.13 in 10.0 mi ENE 5.8 mph - N/A   Clear
1:52 AM 59.0 °F 48.9 °F 69% 30.15 in 10.0 mi Calm Calm - N/A   Clear
2:52 AM 55.9 °F 48.9 °F 77% 30.17 in 10.0 mi ENE 4.6 mph - N/A   Partly Cloudy
3:52 AM 57.9 °F 48.9 °F 72% 30.18 in 10.0 mi NE 6.9 mph - N/A   Clear
4:52 AM 55.9 °F 50.0 °F 80% 30.19 in 10.0 mi SSE 4.6 mph - N/A   Overcast
5:52 AM 57.0 °F 50.0 °F 77% 30.19 in 10.0 mi Calm Calm - N/A   Overcast
6:52 AM 57.9 °F 51.1 °F 78% 30.20 in 10.0 mi Calm Calm - N/A   Overcast
7:52 AM 63.0 °F 51.1 °F 65% 30.20 in 10.0 mi NE 5.8 mph - N/A   Overcast
8:52 AM 66.0 °F 48.9 °F 54% 30.21 in 10.0 mi East 8.1 mph - N/A   Mostly Cloudy
9:52 AM 71.1 °F 46.0 °F 41% 30.21 in 10.0 mi ESE 10.4 mph - N/A   Clear
10:52 AM 75.0 °F 39.9 °F 28% 30.21 in 10.0 mi ESE 12.7 mph - N/A   Clear
11:52 AM 75.9 °F 39.9 °F 27% 30.20 in 10.0 mi East 12.7 mph 19.6 mph N/A   Clear
12:52 PM 79.0 °F 39.0 °F 24% 30.19 in 10.0 mi ESE 10.4 mph - N/A   Clear
1:52 PM 81.0 °F 42.1 °F 25% 30.16 in 10.0 mi SE 9.2 mph 19.6 mph N/A   Clear
2:52 PM 82.0 °F 44.1 °F 26% 30.15 in 10.0 mi South 8.1 mph - N/A   Clear
3:52 PM 84.0 °F 46.0 °F 26% 30.12 in 10.0 mi SSE 9.2 mph 17.3 mph N/A   Clear
4:52 PM 84.0 °F 46.0 °F 26% 30.10 in 10.0 mi South 11.5 mph - N/A   Clear
5:52 PM 84.0 °F 48.0 °F 28% 30.08 in 10.0 mi SSE 12.7 mph - N/A   Clear
6:52 PM 82.9 °F 48.0 °F 29% 30.06 in 10.0 mi SSE 11.5 mph - N/A   Clear
7:52 PM 79.0 °F 51.1 °F 38% 30.05 in 10.0 mi SSE 8.1 mph - N/A   Clear
8:52 PM 69.1 °F 54.0 °F 58% 30.06 in 10.0 mi SE 6.9 mph - N/A   Clear
9:52 PM 66.0 °F 52.0 °F 60% 30.08 in 10.0 mi SE 8.1 mph - N/A   Clear
10:52 PM 64.0 °F 51.1 °F 63% 30.08 in 10.0 mi SE 8.1 mph - N/A   Clear
11:52 PM 62.1 °F 51.1 °F 67% 30.08 in 10.0 mi SE 5.8 mph - N/A   Clear